Location: C�mpuri de-Sus
(45.9500°N, 22.5500°E)
Time: 04:18:53
(UTC+00:00)

Okean O Rocket - Pass Details

Date: 24 October 2021
Orbit: 623 x 643 km, 98.2° (Epoch: 30 November)

Event Time Altitude Azimuth Distance (km) Brightness Sun altitude
Rises 17:33:50 0° 196° (SSW) 2,892 5.1 -22.4°
Reaches altitude 10° 17:36:20 10° 210° (SSW) 1,992 4.4 -22.9°
Maximum altitude 17:39:55 25° 266° (W) 1,279 3.9 -23.5°
Drops below altitude 10° 17:43:31 10° 321° (NW) 2,012 4.8 -24.1°
Sets 17:46:04 0° 335° (NNW) 2,928 5.5 -24.6°
